Regional Weather Roundup
Issued by NWS

Home | Current Version | Previous Version | Graphics & Text | Print | Product List | Glossary Off
Versions: 1 2 3 4 5 6 7 8 9 10 11 12 13 14 15 16 17 18 19 20 21 22 23 24 25 26 27 28 29 30 31 32 33 34 35 36 37 38 39 40 41 42 43 44 45 46 47 48 49 50

000
ASUS43 KFSD 282102
RWRSD

WEATHER ROUNDUP FOR SOUTH DAKOTA
NATIONAL WEATHER SERVICE SIOUX FALLS SD
400 PM CDT WED SEP 28 2016

NOTE: "FAIR" INDICATES FEW OR NO CLOUDS BELOW 12,000 FEET WITH NO
SIGNIFICANT WEATHER AND/OR OBSTRUCTIONS TO VISIBILITY.


SDZ001>005-009-010-012>017-282200-
NORTHWEST AND NORTH CENTRAL SOUTH DAKOTA

CITY           SKY/WX    TMP DP  RH WIND       PRES   REMARKS
BUFFALO          N/A     80  47  31 NE6       30.19S
FAITH            N/A     74  42  31 SE8       30.26S
MOBRIDGE       SUNNY     69  41  36 E7        30.26S
$$

SDZ012>016-024>037-041>051-057-063-072>074-282200-
SOUTHWEST AND SOUTH CENTRAL SOUTH DAKOTA

CITY           SKY/WX    TMP DP  RH WIND       PRES   REMARKS
RAPID CTY ARPT SUNNY     79  48  33 NE9       30.25S
PIERRE         SUNNY     71  36  27 NE10      30.25S
CUSTER         SUNNY     73  38  27 E13G20    30.36S
ELLSWORTH AFB  SUNNY     77  48  35 VRB1      30.25F
PHILIP         SUNNY     75  41  29 E10       30.25R
PINE RIDGE     SUNNY     82  43  25 NE7       30.24S
WINNER         FAIR      70  40  33 MISG      30.26S
$$

SDZ004>011-016>023-039-040-282200-
NORTHEAST SOUTH DAKOTA

CITY           SKY/WX    TMP DP  RH WIND       PRES   REMARKS
ABERDEEN       SUNNY     65  43  44 NE6       30.29S
WATERTOWN      SUNNY     62  45  53 NE12      30.29R
SISSETON         N/A     60  46  59 VRB5      30.30S
$$

SDZ017-020-022-023-036>040-048>070-282200-
SOUTHEAST SOUTH DAKOTA

CITY           SKY/WX    TMP DP  RH WIND       PRES   REMARKS
SIOUX FALLS    MOSUNNY   66  46  48 NE13      30.26R
HURON          SUNNY     68  44  42 VRB6      30.27S
CHAMBERLAIN    SUNNY     69  44  41 E6        30.27R
MITCHELL       SUNNY     66  44  45 VRB5      30.27S
YANKTON        SUNNY     64  43  45 N7        30.24R
$$

ABBREVIATIONS USED IN REMARKS
   TC - TEMPERATURE IN CELSIUS
  WCI - WIND CHILL INDEX
   HX - HEAT INDEX
  VSB - VISIBILITY





USA.gov is the U.S. government's official web portal to all federal, state and local government web resources and services.